Current Version              Previous Version:    01  02  03  04  05  06  07  08  09  10  11  12  13  14  15  16  17  18  19  20  21  22  23  24  25  26  27  28  29  30  
   31  32  33  34  35  36  37  38  39  40  41  42  43  44  45  46  47  48  49  50  51  52  53  54  55  56  57  58  59  60  

[Printable]
006
ASUS44 KFWD 230002
RWRTX
NORTH TEXAS HOURLY WEATHER ROUNDUP
NATIONAL WEATHER SERVICE FORT WORTH TX
ISSUED BY NWS SHREVEPORT LA
600 PM CST SAT NOV 22 2014

NOTE: "FAIR" INDICATES FEW OR NO CLOUDS BELOW 12,000 FEET WITH NO
SIGNIFICANT WEATHER AND/OR OBSTRUCTIONS TO VISIBILITY.

TXZ118-119-230100-
DALLAS/FORT WORTH METROPLEX

CITY           SKY/WX    TMP DP  RH WIND       PRES   REMARKS
DFW AIRPORT    RAIN      59  59 100 S9        29.85R FOG
6HR MIN TEMP:  57; 6HR MAX TEMP:  59; 6HR PCP:  0.27;

DALLAS LOVE    RAIN      62  59  90 SE20G26   29.84S FOG
6HR MIN TEMP:  61; 6HR MAX TEMP:  63; 6HR PCP:  0.17;

FTW MEACHAM    HVY RAIN  60  56  86 W12       29.86S FOG
6HR MIN TEMP:  60; 6HR MAX TEMP:  63; 6HR PCP:  0.45;

DAL-EXECUTIVE  LGT RAIN  63  59  87 S7        29.86R FOG
6HR MIN TEMP:  61; 6HR MAX TEMP:  64; 6HR PCP:  0.11;

FTW-ALLIANCE   HVY RAIN  60  59  96 SW7       29.87R FOG
6HR MIN TEMP:  59; 6HR MAX TEMP:  61; 6HR PCP:  0.28;

FTW-NAS-JRB    HVY RAIN  64  53  67 W14       29.92R
6HR MIN TEMP:  63; 6HR MAX TEMP:  68; 6HR PCP:  0.48;

FTW-SPINKS     RAIN      63  61  94 W10G24    29.91R
ARLINGTON      RAIN      62  58  86 S12       29.86R
6HR MIN TEMP:  61; 6HR MAX TEMP:  63; 6HR PCP:  0.36;

ADDISON        RAIN      61  59  94 SE14G23   29.85S
$$

TXZ091>094-102>105-117-120-121-131>134-230100-
NORTH CENTRAL TEXAS

CITY           SKY/WX    TMP DP  RH WIND       PRES   REMARKS
SHRMAN/DENISON LGT RAIN  57  57 100 E9        29.86F
6HR MIN TEMP:  57; 6HR MAX TEMP:  61; 6HR PCP:  0.02;

DENTON         RAIN      60  59  96 S7        29.86R FOG
6HR MIN TEMP:  59; 6HR MAX TEMP:  62; 6HR PCP:  0.13;

MCKINNEY       HVY RAIN  62  60  93 SE12      29.85F FOG
6HR MIN TEMP:  62; 6HR MAX TEMP:  65; 6HR PCP:  0.08;

TERRELL        LGT RAIN  63  60  90 SE8       29.85F
6HR MIN TEMP:  63; 6HR MAX TEMP:  69; 6HR PCP:  0.03;

$$

TXZ083>090-098>101-113>116-127>130-139>142-154-155-230100-
WESTERN NORTH TEXAS

CITY           SKY/WX    TMP DP  RH WIND       PRES   REMARKS
WICHITA FALLS  LGT RAIN  56  54  93 E21       29.79F
6HR MIN TEMP:  56; 6HR MAX TEMP:  58; 6HR PCP:  1.82;

ABILENE        LGT RAIN  55  54  96 E31G37    29.76F
6HR MIN TEMP:  55; 6HR MAX TEMP:  65; 6HR PCP:  0.32;

ABILENE-DYESS  CLOUDY    55  52  88 VRB6      29.77F
6HR MIN TEMP:  55; 6HR MAX TEMP:  65; 6HR PCP:  0.08;

MINERAL WELLS  LGT RAIN N/A N/A N/A N9        29.85F
                                      6HR PCP:  0.53;

STEPHENVILLE   CLOUDY    56  53  91 E5        29.91R
6HR MIN TEMP:  56; 6HR MAX TEMP:  65; 6HR PCP:  0.21;

$$

TXZ143>147-156>162-174-175-230100-
CENTRAL TEXAS

CITY           SKY/WX    TMP DP  RH WIND       PRES   REMARKS
WACO           LGT RAIN  61  60  97 SE5       29.82F
6HR MIN TEMP:  61; 6HR MAX TEMP:  68; 6HR PCP:  0.70;

WACO-MCGREGOR  CLOUDY    61  55  82 E8        29.82F
6HR MIN TEMP:  61; 6HR MAX TEMP:  68; 6HR PCP:  0.59;

CORSICANA      RAIN      62  60  93 SE9       29.85F FOG
6HR MIN TEMP:  61; 6HR MAX TEMP:  64; 6HR PCP:  0.51;

TEMPLE         CLOUDY    61  55  82 E12       29.79F
6HR MIN TEMP:  61; 6HR MAX TEMP:  70; 6HR PCP:  0.36;

KILLEEN-GRAY   CLOUDY    60  59  96 E7        29.80F THUNDER
6HR MIN TEMP:  60; 6HR MAX TEMP:  65; 6HR PCP:  1.54;

KILLEEN-SKYLRK CLOUDY    61  55  82 NE7       29.79F
6HR MIN TEMP:  61; 6HR MAX TEMP:  66; 6HR PCP:  0.75;

FORT HOOD      TSTM      63  60  90 CALM      29.80F
6HR MIN TEMP:  62; 6HR MAX TEMP:  68; 6HR PCP:  0.83;

$$

TXZ095>097-106>112-122>126-135>138-148>153-164>167-230100-
EAST TEXAS

CITY           SKY/WX    TMP DP  RH WIND       PRES   REMARKS
PARIS          CLOUDY    61  55  82 E8        29.90F
6HR MIN TEMP:  61; 6HR MAX TEMP:  66; 6HR PCP:  0.03;

TYLER          LGT RAIN  64  60  87 SE6       29.87F
6HR MIN TEMP:  64; 6HR MAX TEMP:  68; 6HR PCP:  0.03;

LONGVIEW       CLOUDY    65  59  81 SE8       29.88F
6HR MIN TEMP:  65; 6HR MAX TEMP:  71;

MARSHALL       CLOUDY    68  63  82 E3        29.91F
6HR MIN TEMP:  68; 6HR MAX TEMP:  73;

PALESTINE      LGT RAIN  63  63  99 E9        29.83F
JACKSONVILLE   RAIN      63  61  96 E5        29.88F
NACOGDOCHES    CLOUDY    64  61  88 E6        29.87F
6HR MIN TEMP:  64; 6HR MAX TEMP:  70;

LUFKIN         LGT RAIN  67  61  81 E13       29.84F
6HR MIN TEMP:  67; 6HR MAX TEMP:  71; 6HR PCP:  0.01;

$$

SUPPLEMENTAL OBSERVATIONS (CENTRAL)

CITY           SKY/WX    TMP DP  RH WIND       PRES   REMARKS
$$

SUPPLEMENTAL OBSERVATIONS (WEST)

CITY           SKY/WX    TMP DP  RH WIND       PRES   REMARKS
$$

SUPPLEMENTAL OBSERVATIONS (EAST)

CITY           SKY/WX    TMP DP  RH WIND       PRES   REMARKS
$$

SUPPLEMENTAL OBSERVATIONS ARE A COLLECTION OF AUTOMATED INSTRUMENTS
THAT ARE MAINTAINED BY A VARIETY OF FEDERAL AND STATE AGENCIES.
CERTAIN ELEMENTS...SUCH AS HUMIDITY VALUES AND SUSTAINED WIND
SPEEDS...MAY BE ESTIMATED.